Погода в Смоленске

Погода в Смоленске : погода сейчас, прогноз погоды и архив. Всё, что Вы хотите узнать о погоде в Смоленске!

Хотите узнать прогноз погоды в Смоленске? Тогда Вам сюда: Погода в Смоленске

Поиск расширенной информации на нашем сайте:

Другие новости

Новости СМИ2

Главная страница сайта

Новости сайта

03.07.2017

Напоминаем, что на нашем специализированном сайте Метеоцентр.Азия вы можете получить высокодетализированные автоматические прогнозы погоды по пунктам России, СНГ и мира в авиационном формате (включающие направление и скорость ветра, видимость, явления погоды, количество и форму облачности, нижнюю и верхнюю границу облачности).

Рекомендуем: белый кот

Погода в Смоленске - сегодня

Время (UTC), дата Ветер
(°,м/с) 
Видим.   Явления Облачность Т
(°С)
Тd
(°С)
f(%) Тe
(°С)
Pmin
(гПа)
dP
(гПа)
Po
(мм)
O2
(г/м3)
Тmin Tmax R s Состояние
почвы
12 20.08.17 160 (Ю) 10 км    ясно 
+28.9 +11.9 35 +33  1018.7  -0.5  744  269           
15 20.08.17 140 (ЮВ) 10 км    ясно 
+26.9 +11.2 38 +30  1018  -0.9  743  271           
18 20.08.17 140 (ЮВ) 10 км    4/0 верхняя 
[Ci fib]
+20.9 +11.6 55 +24  1018.8  0.3  743  276    +29       
21 20.08.17 110 (В) 10 км    ясно 
+16.7 +11.9 73 +22  1018.2  -1  743  280           
00 21.08.17 100 (В) 10 км    ясно 
+12.8 +11.3 91 +17  1017.8  -0.8  742  283           
03 21.08.17 100 (В) 10 км    ясно 
+12.9 +11 88 +17  1016.8  -0.9  741  283  +12.2         
06 21.08.17 110 (В) 10 км    4/3 1000 м верхняя 
[Cu med, cong|Ci fib]
+19.6 +13.3 67 +27  1015.4  -0.7  741  276  +12.2        сухая 
09 21.08.17 140 (ЮВ) 10 км    ясно 
+25.8 +14.9 51 +35  1014  -0.8  740  269           
12 21.08.17 130 (ЮВ) 10 км    ясно 
+28.3 +14.7 43 +37  1012.3  -1.4  739  267           
15 21.08.17 260 (З) 10 км  гроза без осадков  9/9 300 м кучево-дожд. 
[Cb cap]
+21.6 +12 54 +26  1012.9  739  274           
18 21.08.17 360 (С) 10 км  {гроза, ливн. осадки}  5/4 300 м кучево-дожд., верхняя 
[Cb cap|Ci fib]
+16.3 +13.2 82 +24  1013.4  0.1  739  278    +28.6     
21 21.08.17 280 (З) 10 км    8/8 600 м 
[Sc]
+17 +12.8 76 +23  1014.1  0.7  740  278           
00 22.08.17 260 (З) 10 км  в посл. час гроза{ливн. осадки}  10/10 300 м кучево-дожд. 
[Cb cap]
+15.1 +14.2 94 +24  1014  -0.2  739  279           
03 22.08.17 тихо ()   10 км    9/0 средняя 
[Ac trans]
+14.4 +13.3 93 +21  1012.3  -1.8  738  280  +14.4       
06 22.08.17 300 (СЗ) 10 км    9/3 1000 м кучево-дожд., средняя, верхняя 
[Cb cap|Ac As|Ci]
+16.6 +14.7 89 +26  1012.2  0.1  738  277  +13.7      влажная 
09 22.08.17 350 (С) 10 км  {ливн. осадки}  9/4 1000 м средняя, верхняя 
[Sc diur, vesp|Ac cuf|Ci ing]
+19.5 +15.2 76 +30  1011.1  -0.8  738  274           
12 22.08.17 340 (С) 10 км  {ливн. осадки}  9/3 600 м средняя, верхняя 
[Sc|Ac As|Ci fib]
+20.6 +16.1 75 +32  1010  -0.9  737  273           
15 22.08.17 320 (СЗ) 10 км    10/8 600 м кучево-дожд., средняя 
[Cb cap|Ac und]
+19.6 +16.3 81 +33  1008.7  -1.4  736  273      0.3     
18 22.08.17 320 (СЗ) 10 км    10/10 600 м 
[Sc]
+17.5 +15.6 89 +28  1007.7  -1.4  735  275    +21.1  0.3     
21 22.08.17 320 (СЗ) 10 км  {ливн. осадки}  10/10 600 м кучево-дожд. 
[Cb cap]
+15.4 +14.1 92 +24  1006.7  -1.2  734  277           
00 23.08.17 330 (СЗ) 10 км  {ливн. осадки}  10/10 600 м кучево-дожд. 
[Cb cap]
+14.8 +13.8 94 +22  1004.7  -2  733  277           
03 23.08.17 350 (С) 4000 м  слаб. ливневой дождь  10/10 300 м кучево-дожд. 
[Cb cap]
+15 +14.1 94 +24  1002  -2.6  731  276  +14.8       
06 23.08.17 090 (В) 4000 м  в посл. час ливневой дождь  10/10 300 м кучево-дожд. 
[Cb cap]
+15.5 +14.4 93 +24  1000.7  -1.2  730  275  +14.8      влажная 
09 23.08.17 100 (В) 4000 м  дымка  10/10 300 м 
[St]
+16.5 +15 91 +26  1000.1  -0.4  729  274           
12 23.08.17 190 (Ю) 4000 м  слаб. ливневой дождь  10/10 300 м кучево-дожд. 
[Cb cap]
+16.4 +15.1 92 +28  1000.5  0.4  730  274           
Время (UTC), дата Ветер
(°,м/с) 
Видим.   Явления Облачность Т
(°С)
Тd
(°С)
f(%) Тe
(°С)
Pmin
(гПа)
dP
(гПа)
Po
(мм)
O2
(г/м3)
Тmin Tmax R s Состояние
почвы

Для получения пояснительной информации подведите курсор к названию столбца.

ПОГОДА в Смоленске - архив

Всё, что Вы хотите узнать о погоде в Смоленске - удобно и подробно!

Выберите нужную дату (начиная с 1 января 2015* года) и нажмите кнопку "Найти".
Будут отображены архивные сводки погоды по пункту Смоленск, начиная с указанной даты.


Отображать данные в формате CSV (для использования в таблицах Excel)


Внимание! Наш архив погоды предназначен исключительно для личного некоммерческого использования в познавательных целях. Если Вам необходимы официальные справки о состоянии погоды (для производственных, юридических, коммерческих и т.п. целей), обращайтесь в органы Росгидромета.

*Примечание: данная дата относится к архиву по метеостанциям СССР (Россия, СНГ, Балтия).
Архив по метеостанциям Зарубежной Европы и Азии (кроме Китая) хранится 10 дней, по другим регионам земного шара (Китай, Африка, Америка, Австралия, Океания) - 1 день.

Смоленск - район местоположения метеостанции


Название, широта, долгота, высота метеостанции:
Смоленск 54.8°ш. 32.1°д. 239 м над ур. моря [Российская Федерация]

Дополнительная информация

В oтличие oт бoльшинства пoгoдных сайтoв мы публикуем пoдрoбную метеoинфoрмацию в детальнoм прoфессиoнальнoм фoрмате.

Характеристики температуры и влажнoсти вoздуха измеряются на высoте 2 м в тени вдали oт зданий и деревьев.
Скoрoсть ветра измеряется на высoте 10 м (на урoвне рoста челoвека скoрoсть ветра ниже в 1.5-2 раза). Если метеoстанция нахoдится в гoрoде или в лесу, тo скoрoсть ветра занижена на 2-4 м/с пo сравнению с oткрытым местoм. Скoрoсть ветра над акватoриями крупных рек и oзёр, а также на вершинах хoлмoв на 2-5 м/с выше, чем в oбычных услoвиях.
Атмoсфернoе давление в разных тoчках местнoсти мoжет значительнo oтличаться oт давления на метеoстанции, в зависимoсти oт услoвий рельефа (при пoдъёме на 10 м давление пoнижается примернo на 1 мм рт.ст.).